Skip Page Navigation
NASA JPL Caltech
NASA Logo - Jet Propulsion Laboratory + View the NASA Portal
+ Center for Near-Earth Object Studies
JPL Home Earth Solar System Stars & Galaxies Technology
JPL Solar System Dynamics
BODIES ORBITS EPHEMERIDES TOOLS PHYSICAL DATA DISCOVERY FAQ SITE MAP
JPL Small-Body Database Browser
Search: [ help ]  
3715 Stohl (1980 DS)
Classification: Main-belt Asteroid          SPK-ID: 2003715
Ephemeris | Orbit Diagram | Orbital Elements | Mission Design | Physical Parameters | Discovery Circumstances ]

[ show orbit diagram ]
Orbital Elements at Epoch 2459000.5 (2020-May-31.0) TDB
Reference: JPL 31 (heliocentric ecliptic J2000)
 Element Value Uncertainty (1-sigma)   Units 
e .09913796341959863 2.8414e-08  
a 2.316321972793199 5.833e-09 au
q 2.086686529786414 6.7124e-08 au
i 5.937389161133708 3.034e-06 deg
node 145.1812421739537 3.0165e-05 deg
peri 236.4133648838847 3.3801e-05 deg
M 274.3530018564781 1.5852e-05 deg
tp 2459306.841942887737
(2021-Apr-02.34194289)
5.6915e-05 TDB
period 1287.64699090539
3.53
4.8639e-06
1.332e-08
d
yr
n .2795797315123388 1.0561e-09 deg/d
Q 2.545957415799983 6.4113e-09 au
  Orbit Determination Parameters
   # obs. used (total)      2884  
   data-arc span      15310 days (41.92 yr)  
   first obs. used      1978-08-31  
   last obs. used      2020-07-31  
   planetary ephem.      DE431  
   SB-pert. ephem.      SB431-N16  
   condition code      0  
   norm. resid. RMS      .44237  
   source      ORB  
   producer      Otto Matic  
   solution date      2020-Aug-24 23:06:53  

Additional Information
 Earth MOID = 1.09524 au 
 Jupiter MOID = 2.85329 au 
 T_jup = 3.567 
[ show covariance matrix ]

Ephemeris | Orbit Diagram | Orbital Elements | Mission Design | Physical Parameters | Discovery Circumstances ]

Physical Parameter Table
Parameter Symbol Value Units Sigma Reference Notes
absolute magnitude H 13.4   n/a MPO384786  
diameter diameter 4.913 km 0.065 urn:nasa:pds:neowise_diameters_albedos::2.0[mainbelt] (http://adsabs.harvard.edu/abs/2014ApJ...791..121M)  
geometric albedo albedo 0.423   0.041 urn:nasa:pds:neowise_diameters_albedos::2.0[mainbelt] (http://adsabs.harvard.edu/abs/2012ApJ...759L...8M)  

3715 Stohl (1980 DS)          Discovered 1980-Feb-19 by Mrkos, A. at Klet
Reference: DISCOVERY.DBLast Updated: 2003-08-29

Alternate Designations
 1980 DS = 1978 QQ1 = 1985 PZ 
Ephemeris | Orbit Diagram | Orbital Elements | Mission Design | Physical Parameters | Discovery Circumstances ]
ABOUT SSD CREDITS/AWARDS PRIVACY/COPYRIGHT GLOSSARY LINKS
FirstGov 2020-Oct-21 22:49 UT
(server date/time)  
NASA Home Page
Site Manager:   Ryan S. Park
Webmaster  Alan B. Chamberlin